Location: Alafon
(8.4500°N, 4.2333°E)
Time: 16:41:47
(UTC+00:00)

SR - Pass Details

Date: 06 August 2021
Orbit: 581 x 874 km, 66.7° (Epoch: 18 September)

Event Time Altitude Azimuth Distance (km) Brightness Sun altitude
Rises 15:12:20 0° 323° (NW) 2,842 ? 39.8°
Reaches altitude 10° 15:14:48 10° 312° (NW) 1,915 ? 39.2°
Maximum altitude 15:18:31 29° 251° (WSW) 1,064 ? 38.4°
Drops below altitude 10° 15:22:12 10° 190° (S) 1,889 ? 37.5°
Sets 15:24:38 0° 179° (S) 2,797 ? 36.9°
